Temperature
17 18 18 18 18 18 18 18 18 18 18 18 18 18 18 18 17 17 17 17 17 17 17 18 18 18 17 17 17 18 18 18 18 18 18 18 18 18 18 18 18 18 18
18 18 18 18 18 18 18 18 18 18 18 18 18 17 17 17 17 17 17 17 17 17 17 18 18 17 17 17 17 17 17 18 18 18 18 18 18 18 18 18 18 18 18
18 18 18 18 18 18 18 17 18 18 17 18 17 17 17 17 17 17 17 17 17 17 17 17 17 17 17 17 17 17 17 17 17 18 18 18 18 18 18 18 18 18 18
18 18 18 18 18 18 17 17 17 17 17 17 17 17 17 17 17 17 17 17 17 17 17 17 17 17 17 17 17 17 17 17 17 17 17 17 17 17 18 18 18 18 18
18 18 18 18 18 17 17 17 17 17 17 17 17 17 17 17 17 17 17 17 17 17 17 17 17 17 17 17 17 17 17 17 17 17 17 17 17 17 17 17 17 18 18
18 18 18 18 17 17 17 17 17 17 17 17 17 17 17 17 17 16 17 17 17 17 17 17 17 17 17 17 17 17 17 17 17 17 17 17 17 17 17 17 17 17 18
18 18 17 17 17 17 17 17 17 17 17 17 17 17 17 17 17 17 17 17 17 17 17 17 17 17 16 17 17 17 17 17 17 17 17 17 17 17 17 17 17 17 17
18 18 17 17 17 17 17 17 17 17 17 17 17 17 17 17 16 16 17 17 17 17 17 17 17 16 16 16 16 16 17 16 17 17 17 17 17 17 17 17 17 17 17
18 18 18 17 17 17 17 17 17 17 17 17 17 16 16 16 16 16 16 16 16 16 16 16 16 16 16 16 16 16 16 16 16 16 16 16 17 17 17 17 17 17 17
17 17 17 17 17 17 17 17 17 17 17 17 16 16 16 16 16 16 16 16 16 16 16 16 16 16 16 16 16 16 16 16 16 16 16 16 16 16 17 17 17 17 17
17 17 17 17 17 17 17 17 17 17 17 17 16 16 16 16 16 16 16 16 16 16 16 16 16 16 16 16 16 16 16 16 16 16 16 16 16 16 16 16 16 16 16
18 17 18 17 17 17 17 17 17 17 17 17 16 16 16 16 16 16 16 16 16 16 16 16 16 16 16 16 16 16 16 16 16 16 16 16 16 16 16 16 16 16 16
18 18 18 18 17 17 17 17 17 17 17 17 16 16 16 16 16 16 16 16 16 16 16 16 16 16 16 16 16 16 16 16 16 16 15 15 16 16 16 16 16 16 16
18 18 18 18 18 17 17 17 17 17 17 17 17 16 16 16 16 16 16 16 16 16 16 16 16 16 16 16 16 16 16 16 16 16 15 15 15 15 15 16 16 16 16
18 18 18 18 17 17 17 17 17 17 17 17 17 17 16 16 16 16 16 16 16 16 16 16 16 16 16 16 15 15 15 15 15 15 15 15 15 15 15 15 15 15 15
18 18 18 18 18 17 17 17 17 17 17 17 17 17 16 16 16 16 16 16 16 16 16 16 16 16 15 15 15 15 15 15 15 15 15 15 15 15 15 15 15 15 15
18 18 18 18 18 17 17 17 17 17 17 17 17 16 16 16 16 16 16 16 16 16 16 16 16 16 15 15 15 15 15 15 15 15 15 15 15 15 15 15 15 15 15
18 18 18 18 18 18 17 17 17 17 17 17 17 16 16 16 16 16 16 16 16 16 16 16 16 15 15 15 15 15 15 15 15 14 15 15 15 15 15 15 15 15 14
18 18 18 18 18 18 17 17 17 17 17 17 17 16 16 16 16 16 16 16 16 16 16 16 16 16 15 15 15 15 14 14 14 14 14 14 14 14 14 14 14 14 14
18 18 18 18 18 17 17 17 17 17 17 17 16 16 16 16 16 16 16 16 16 16 16 16 15 15 15 15 15 14 14 14 14 14 14 14 14 14 14 14 14 14 14
18 18 18 18 18 17 17 17 17 17 17 16 16 16 16 16 16 16 16 16 16 16 16 15 15 15 15 15 15 14 14 14 14 14 14 14 14 14 14 14 14 14 14
18 18 18 18 18 17 17 17 17 17 16 16 16 16 16 16 16 16 16 15 15 15 15 15 15 15 15 15 15 14 14 14 13 13 13 13 13 13 13 13 13 13 13
18 18 18 18 18 17 17 17 17 16 16 16 16 16 16 16 16 16 15 15 15 15 15 15 15 15 15 15 15 15 14 14 13 13 13 13 13 13 13 13 13 13 13
18 18 18 18 17 17 17 17 17 16 16 16 16 16 16 16 15 15 15 15 15 15 15 15 15 15 15 15 15 15 15 15 14 13 13 13 13 13 13 13 13 12 12
18 18 18 18 17 17 17 17 17 16 16 16 16 16 15 15 15 15 15 15 15 15 15 15 15 15 15 15 15 15 15 15 14 14 13 12 12 12 12 12 12 12 12
18 18 18 17 17 17 17 17 16 16 16 16 16 16 15 15 15 15 15 15 15 15 15 15 15 15 15 15 15 15 15 15 14 14 13 13 12 12 12 12 12 12 12
Wind_Speed
1 2 7 9 10 10 10 11 12 12 12 13 13 14 14 14 14 14 14 14 13 13 12 12 12 11 11 11 11 11 10 10 10 10 11 11 10 10 10 10 10 9 11
3 5 8 10 10 10 10 11 12 12 12 13 14 14 14 14 13 13 13 13 13 12 12 11 12 12 11 11 11 10 9 9 9 10 10 10 10 10 11 11 10 9 11
5 6 9 10 11 11 11 11 12 12 12 13 13 13 13 13 12 12 12 12 12 12 11 12 12 12 11 11 11 11 10 9 10 11 10 8 9 11 10 11 11 11 11
7 6 8 10 11 12 12 12 12 12 12 12 13 13 13 12 12 11 11 11 11 11 11 11 11 11 11 12 12 12 12 13 13 12 9 7 8 10 10 10 10 10 10
6 7 9 11 12 12 12 12 12 12 12 12 12 12 12 11 11 10 10 10 10 10 10 10 10 11 11 11 12 12 13 12 13 11 9 8 8 10 11 11 11 10 10
6 7 9 11 11 12 12 12 12 12 12 12 11 11 11 10 10 9 9 10 10 9 9 9 10 10 11 11 12 12 12 13 12 10 9 8 8 10 11 11 10 10 10
6 7 9 11 11 12 11 11 11 11 11 11 10 10 9 9 9 8 9 9 9 9 8 9 9 10 10 11 11 12 13 12 11 10 9 8 9 10 11 11 10 10 10
7 7 8 10 11 11 10 10 10 10 10 9 9 8 8 8 8 8 8 8 8 7 7 7 7 8 9 10 11 12 12 11 10 9 8 8 9 10 10 11 10 10 10
7 6 6 7 8 9 9 9 9 8 8 8 7 7 6 7 6 6 6 6 6 6 6 5 6 7 8 9 11 12 12 11 10 8 7 7 9 10 10 10 10 10 10
5 5 5 6 6 6 6 7 7 7 6 6 6 5 5 5 5 5 4 5 5 5 4 4 5 6 8 9 10 11 12 11 9 8 7 8 10 10 10 10 10 10 9
6 4 4 5 5 5 5 5 5 5 5 4 4 4 3 3 3 2 3 3 3 4 3 3 4 6 7 8 10 11 11 9 9 8 8 10 10 10 10 10 10 10 10
6 5 5 5 5 5 4 5 3 3 3 3 2 2 3 2 2 2 2 3 3 3 3 3 5 6 7 8 10 11 10 10 9 8 9 11 11 11 12 11 11 11 11
6 6 6 5 5 5 3 4 3 2 2 1 1 2 2 2 2 2 2 2 3 4 4 6 7 7 8 8 8 9 10 10 9 9 10 11 12 12 12 11 11 11 11
5 5 6 6 5 4 4 3 3 3 2 1 1 2 4 3 3 2 2 2 2 3 4 5 6 8 10 10 10 9 9 9 9 9 11 13 12 12 12 12 11 11 10
5 4 4 6 5 4 4 3 3 3 3 3 4 4 5 4 3 2 2 2 3 5 6 6 7 8 8 9 10 10 9 9 10 10 10 14 14 13 12 12 11 11 11
5 5 5 5 5 6 4 3 3 4 5 6 6 6 7 6 4 3 3 3 5 6 7 8 7 7 7 7 7 8 8 9 10 10 10 12 14 14 13 13 12 12 12
6 5 6 6 6 6 5 4 5 5 7 6 6 8 9 8 6 5 4 4 5 8 9 8 8 8 6 7 6 6 7 8 9 10 10 11 11 14 15 14 14 13 13
6 5 5 6 6 6 5 5 5 6 7 6 7 8 9 9 9 7 4 4 6 8 7 5 5 6 6 5 5 4 5 6 8 9 10 10 11 11 13 15 15 15 14
7 6 5 6 6 6 6 6 6 6 6 6 8 8 8 9 9 7 5 4 7 6 4 5 4 5 6 5 5 5 5 5 5 8 8 9 10 11 12 14 15 16 15
6 6 6 6 7 6 5 5 4 4 4 5 6 6 7 8 8 7 5 5 6 5 4 4 5 5 4 4 6 6 5 4 5 5 6 8 10 11 12 12 12 14 15
6 6 6 6 6 6 4 4 3 2 2 2 3 5 7 7 7 7 4 4 4 4 4 5 5 5 4 4 5 5 5 6 5 4 5 6 8 9 11 11 11 11 12
7 6 7 7 6 6 4 4 3 3 2 1 2 4 6 6 6 6 5 4 4 4 5 5 5 3 2 2 3 3 3 4 4 5 4 4 5 7 8 10 10 11 11
8 8 8 7 7 6 6 5 4 4 3 2 2 1 2 5 6 6 6 5 4 4 4 4 4 4 3 1 2 3 4 2 1 3 4 4 4 4 5 7 9 9 10
8 7 7 7 6 6 7 7 6 4 3 2 1 1 1 3 5 6 6 6 4 3 3 3 3 3 4 2 1 2 2 4 3 1 3 3 4 4 4 5 6 8 9
7 7 7 7 6 6 7 8 7 5 3 2 1 2 2 2 3 5 6 5 4 3 3 3 4 3 2 3 2 2 3 3 3 3 2 1 3 3 3 4 5 6 8
6 7 7 7 5 6 6 7 7 7 5 4 3 3 2 1 1 3 5 5 5 3 3 3 4 5 4 4 3 3 3 3 3 3 3 2 1 2 3 4 4 4 6
Wind_Direction
94 108 104 101 100 96 90 86 87 87 88 91 94 94 93 94 92 91 90 89 88 86 83 81 78 77 76 73 71 71 75 80 81 83 85 86 86 88 89 89 87 83 86
140 113 104 101 102 100 97 93 91 90 91 92 95 96 95 94 93 92 91 91 89 85 83 81 80 78 76 72 69 68 71 75 83 86 86 83 86 89 89 89 89 87 86
111 103 103 100 100 100 100 97 95 93 94 95 96 96 96 95 94 93 92 91 89 85 82 80 80 76 72 69 65 61 61 72 87 91 86 77 81 86 88 90 90 88 87
113 105 107 103 104 103 101 98 95 94 94 96 98 97 97 97 94 93 93 93 90 86 82 80 79 76 70 64 59 58 62 77 88 86 75 69 77 86 87 90 91 92 89
106 105 110 107 107 106 103 100 98 97 96 97 97 97 97 97 95 94 93 93 93 88 83 80 77 73 70 63 58 60 66 74 83 79 71 65 71 86 88 89 90 90 89
111 109 110 106 107 108 105 103 102 101 102 100 99 97 95 93 94 96 95 94 94 90 84 80 77 75 69 61 59 63 69 76 76 72 66 64 70 84 87 88 88 86 86
122 118 115 111 108 108 108 107 104 105 104 102 102 100 98 96 95 96 96 96 96 94 90 82 77 74 68 62 62 67 77 81 77 71 64 65 77 85 85 84 84 83 83
131 125 120 116 114 112 112 111 110 108 107 107 107 105 103 100 99 101 101 102 102 99 93 85 77 72 70 67 68 73 77 79 76 74 67 65 80 85 84 84 84 82 81
132 126 120 121 119 120 120 120 118 116 113 112 111 106 104 104 107 109 110 112 109 102 94 84 76 71 69 66 67 74 77 75 68 67 72 70 82 84 83 83 83 81 79
139 141 145 137 131 129 129 130 130 127 123 118 112 107 105 107 116 117 116 121 113 102 92 70 75 74 68 64 70 77 75 69 62 60 64 73 80 83 85 85 83 81 79
149 161 165 161 159 158 153 146 142 133 127 120 110 109 100 94 120 131 130 120 108 95 88 80 78 74 65 66 78 81 74 68 65 62 66 79 81 81 83 85 84 81 79
159 172 175 177 178 171 160 139 140 130 116 108 110 120 125 118 140 132 115 114 89 74 72 71 65 68 70 74 78 79 74 66 62 61 66 76 78 79 80 82 81 80 80
167 169 171 176 172 166 151 138 137 120 107 115 158 180 161 133 122 108 94 72 55 57 51 49 58 69 81 85 86 82 78 72 63 61 63 70 73 76 78 79 79 80 78
153 159 164 163 161 159 141 132 124 110 89 77 149 143 136 125 116 117 99 72 58 62 67 67 72 82 89 89 89 86 80 75 67 62 63 68 71 75 75 76 77 76 78
152 158 159 151 151 141 130 120 103 98 86 74 77 103 122 119 113 107 96 78 69 83 90 93 87 87 87 88 91 88 80 77 70 63 61 65 67 68 70 71 74 76 77
154 151 144 142 143 128 123 118 113 96 88 74 69 81 104 111 109 103 87 77 74 89 97 101 98 93 87 86 83 82 81 79 74 67 64 61 61 62 62 64 69 72 74
163 153 142 137 128 124 122 121 108 99 90 75 66 72 86 97 99 95 90 84 85 96 95 94 90 87 86 83 78 79 80 80 77 70 69 65 61 59 59 62 65 67 70
155 146 143 131 126 124 118 109 100 95 88 76 72 74 78 87 93 91 89 86 97 99 98 96 89 87 82 80 77 74 76 78 77 75 73 70 65 60 56 61 64 64 67
153 144 129 120 127 124 114 101 95 90 83 77 73 76 78 81 91 95 92 92 101 100 99 104 91 99 97 89 84 73 70 74 73 78 71 69 68 64 60 59 61 59 60
149 143 131 125 127 122 108 93 81 71 62 67 71 76 82 82 90 95 92 90 98 96 88 97 98 90 99 102 91 73 60 62 66 69 72 71 69 68 65 62 59 56 56
151 149 141 136 135 128 117 111 103 92 76 66 68 79 82 85 90 91 93 90 97 102 109 112 106 96 90 102 88 65 44 46 56 61 63 68 66 70 68 66 63 59 54
166 165 153 151 151 149 141 138 137 132 118 113 71 70 80 89 93 98 95 99 101 100 98 103 107 107 109 112 114 102 65 28 29 46 55 70 63 65 67 67 65 62 58
170 170 166 165 160 155 142 118 98 77 60 52 48 47 57 94 98 101 105 105 104 109 120 123 122 122 133 70 102 133 135 167 54 22 38 53 56 58 60 67 69 65 62
179 171 162 166 158 156 146 139 138 139 149 182 181 162 74 88 100 103 108 109 107 108 117 127 120 119 131 130 57 64 124 144 140 101 19 25 44 56 54 65 69 67 64
170 162 163 162 159 161 156 152 147 151 165 162 141 123 98 61 90 105 109 106 107 109 115 108 100 96 111 128 127 107 86 75 89 126 131 24 28 26 41 57 67 69 66
162 155 154 157 166 167 160 157 157 161 161 153 151 144 133 98 71 96 105 106 108 111 112 110 104 98 93 92 93 101 122 124 131 124 135 138 97 10 27 39 53 65 69
Height
1536 1535 1535 1534 1533 1533 1532 1532 1531 1531 1530 1530 1530 1531 1531 1531 1531 1532 1532 1532 1532 1532 1532 1532 1532 1532 1531 1531 1531 1531 1530 1530 1530 1530 1529 1529 1529 1529 1529 1529 1528 1528 1528
1536 1536 1535 1535 1534 1534 1533 1532 1532 1532 1531 1531 1531 1532 1532 1532 1533 1533 1533 1533 1533 1533 1533 1533 1533 1533 1532 1532 1532 1532 1531 1530 1530 1530 1530 1530 1531 1531 1530 1530 1530 1529 1529
1536 1536 1536 1535 1535 1534 1534 1534 1533 1533 1532 1532 1532 1533 1533 1533 1533 1534 1534 1534 1534 1534 1534 1534 1534 1534 1534 1533 1533 1532 1531 1528 1530 1531 1532 1532 1532 1532 1532 1531 1531 1531 1531
1537 1537 1536 1536 1536 1535 1535 1535 1534 1534 1534 1533 1533 1534 1534 1534 1534 1535 1535 1535 1535 1536 1535 1535 1535 1535 1535 1535 1535 1534 1532 1530 1531 1533 1533 1533 1533 1533 1533 1533 1532 1532 1532
1538 1538 1537 1537 1537 1537 1536 1536 1535 1535 1535 1535 1535 1535 1535 1535 1535 1536 1536 1536 1536 1536 1536 1536 1536 1536 1536 1536 1536 1536 1535 1534 1534 1534 1534 1534 1534 1534 1534 1534 1534 1534 1534
1539 1539 1539 1538 1538 1538 1537 1537 1537 1537 1537 1537 1537 1537 1537 1537 1537 1537 1537 1537 1538 1537 1537 1537 1538 1538 1538 1538 1538 1537 1537 1536 1536 1536 1536 1536 1536 1535 1535 1535 1535 1535 1535
1540 1540 1540 1540 1539 1539 1539 1539 1539 1538 1538 1538 1538 1539 1539 1538 1538 1538 1538 1538 1539 1539 1539 1539 1539 1539 1539 1539 1539 1538 1538 1538 1538 1537 1537 1537 1537 1537 1536 1536 1536 1536 1536
1541 1541 1541 1541 1541 1541 1540 1540 1540 1540 1540 1540 1540 1540 1540 1540 1540 1540 1540 1540 1540 1540 1540 1540 1540 1540 1540 1540 1540 1540 1540 1539 1539 1539 1538 1538 1538 1538 1538 1538 1537 1537 1537
1543 1543 1543 1543 1542 1542 1542 1542 1542 1542 1542 1542 1542 1542 1542 1542 1541 1541 1541 1541 1541 1541 1541 1541 1542 1542 1542 1542 1542 1542 1541 1541 1540 1540 1539 1539 1539 1539 1539 1539 1538 1538 1538
1544 1544 1544 1544 1544 1544 1544 1544 1544 1544 1544 1543 1543 1543 1543 1543 1543 1543 1543 1543 1543 1543 1543 1543 1543 1543 1543 1543 1543 1543 1543 1542 1542 1541 1541 1540 1540 1540 1539 1539 1539 1539 1539
1545 1545 1546 1546 1546 1546 1546 1546 1546 1546 1545 1545 1545 1545 1545 1544 1544 1544 1544 1544 1544 1544 1544 1544 1544 1544 1544 1544 1544 1544 1544 1543 1543 1542 1542 1542 1541 1541 1541 1540 1540 1540 1540
1546 1546 1547 1547 1547 1547 1547 1547 1547 1547 1547 1547 1547 1546 1546 1546 1546 1546 1545 1545 1545 1545 1545 1545 1545 1545 1545 1545 1545 1545 1545 1544 1544 1544 1543 1543 1543 1542 1542 1542 1541 1541 1541
1546 1547 1547 1548 1548 1549 1549 1549 1549 1549 1548 1548 1548 1548 1547 1547 1547 1547 1547 1547 1547 1547 1546 1546 1546 1546 1547 1547 1547 1546 1546 1546 1545 1545 1545 1544 1544 1544 1543 1543 1543 1542 1542
1547 1547 1548 1549 1549 1550 1550 1550 1550 1550 1550 1549 1549 1549 1549 1548 1548 1548 1548 1549 1548 1548 1548 1548 1548 1548 1548 1548 1548 1548 1548 1547 1547 1547 1546 1546 1545 1545 1545 1544 1544 1544 1543
1547 1548 1549 1549 1550 1551 1551 1551 1551 1551 1551 1550 1550 1550 1550 1550 1550 1549 1550 1550 1550 1550 1550 1550 1550 1550 1550 1550 1550 1550 1549 1549 1549 1548 1548 1548 1547 1546 1546 1546 1545 1545 1544
1547 1549 1549 1550 1551 1551 1552 1552 1552 1552 1552 1552 1551 1551 1551 1551 1551 1551 1551 1551 1551 1551 1551 1551 1551 1552 1552 1552 1552 1551 1551 1551 1550 1550 1549 1549 1549 1548 1547 1547 1546 1546 1545
1547 1548 1550 1550 1551 1552 1552 1553 1553 1553 1553 1552 1552 1552 1552 1552 1552 1552 1552 1552 1552 1553 1553 1553 1553 1553 1553 1553 1553 1553 1552 1552 1552 1552 1552 1551 1550 1550 1549 1548 1548 1547 1547
1547 1549 1550 1551 1552 1552 1553 1553 1553 1554 1554 1553 1553 1553 1553 1553 1553 1553 1553 1554 1554 1554 1554 1554 1554 1554 1555 1554 1554 1554 1554 1554 1554 1554 1553 1553 1552 1551 1550 1550 1549 1548 1548
1547 1548 1550 1551 1552 1552 1553 1553 1554 1554 1554 1554 1554 1554 1554 1554 1554 1554 1555 1555 1555 1555 1555 1556 1556 1556 1556 1556 1556 1555 1555 1556 1556 1556 1555 1554 1554 1553 1552 1551 1550 1549 1549
1547 1548 1549 1550 1551 1552 1553 1554 1554 1554 1554 1554 1554 1555 1555 1555 1555 1555 1555 1556 1556 1556 1556 1557 1557 1557 1557 1557 1557 1557 1557 1558 1558 1557 1557 1556 1555 1555 1554 1553 1552 1551 1550
1546 1547 1548 1550 1551 1552 1553 1553 1554 1554 1554 1555 1555 1555 1555 1555 1555 1556 1556 1556 1557 1557 1557 1558 1558 1558 1558 1559 1559 1559 1559 1560 1560 1559 1559 1558 1557 1557 1556 1555 1554 1553 1551
1544 1546 1548 1549 1550 1551 1552 1553 1554 1554 1555 1555 1555 1555 1555 1556 1556 1556 1556 1556 1557 1557 1558 1558 1559 1559 1559 1560 1560 1559 1560 1562 1561 1561 1561 1560 1559 1558 1557 1556 1555 1554 1553
1543 1545 1546 1548 1549 1551 1552 1553 1553 1554 1554 1555 1555 1555 1556 1556 1556 1556 1556 1557 1557 1558 1558 1559 1559 1559 1559 1560 1560 1561 1560 1561 1562 1563 1562 1562 1561 1560 1559 1558 1557 1556 1555
1541 1543 1545 1547 1548 1550 1551 1551 1552 1553 1554 1554 1555 1555 1556 1556 1556 1557 1557 1557 1558 1558 1558 1559 1559 1560 1560 1560 1560 1560 1561 1561 1561 1562 1564 1563 1562 1562 1561 1560 1559 1558 1557
1539 1541 1543 1545 1547 1548 1549 1550 1551 1552 1553 1554 1555 1555 1556 1556 1557 1557 1557 1557 1558 1558 1558 1559 1559 1559 1560 1560 1560 1560 1560 1560 1561 1561 1562 1563 1563 1563 1562 1562 1561 1559 1559
1538 1540 1542 1544 1545 1547 1548 1549 1550 1551 1552 1553 1554 1555 1555 1556 1556 1557 1557 1557 1557 1558 1558 1558 1559 1559 1559 1559 1560 1560 1560 1560 1561 1561 1561 1562 1563 1563 1563 1563 1562 1561 1560